[Date Prev][Date Next][Thread Prev][Thread Next] - [Date Index][Thread Index][Author Index]
2 Line ISS Keps 4-24
- Subject: [sarex] 2 Line ISS Keps 4-24
- From: "Dave Larsen PhD" <doc@xxxxxxxxxxx>
- Date: Sat, 23 Apr 2005 18:35:06 -0700
ISS
1 25544U 98067A 05114.01727125 .00015519 00000-0 12321-3 0 3140
2 25544 051.6461 178.2414 0007637 044.8152 019.4376 15.71450206367163
----
Via the sarex mailing list at AMSAT.ORG courtesy of AMSAT-NA.
To unsubscribe, send "unsubscribe sarex" to Majordomo@amsat.org
AMSAT Home